Theta_e
295 296 296 296 295 294 295 295 296 296 298 299 295 296 299 299 291 287 296 299 296 297 299 300 301 302 303 304 305 307 308 308 309 308 307 307 307 307 307 307 308 308 308 309 311 314 315 316 316 318 319 321 323 323 324 324 325 325 326 326 325 325 326 326 326 326 327 328 327 327 326 326 326 326 326 326 325 324 325 325 325 324 323 321 320 319 319
293 293 293 295 294 295 295 295 295 297 298 299 300 299 301 301 299 300 299 298 295 296 297 300 301 303 303 303 305 306 305 305 305 305 304 303 303 304 305 305 305 306 306 307 308 309 310 311 312 314 316 316 318 319 321 323 324 325 326 325 325 325 326 326 326 325 326 328 327 328 328 327 327 327 326 325 325 325 325 325 325 325 325 324 322 320 319
292 294 294 294 294 294 294 294 296 297 297 298 299 300 300 301 301 300 298 294 292 297 300 300 301 301 301 301 301 301 302 301 301 301 301 301 302 302 303 303 304 304 304 305 305 306 307 308 309 310 312 313 315 316 318 319 320 323 323 324 325 325 325 326 327 327 327 327 328 327 325 326 327 326 326 326 326 325 324 325 325 326 322 324 324 322 320
289 293 293 293 294 293 293 293 294 295 296 293 296 295 301 298 295 297 295 291 290 296 300 300 300 299 298 298 298 298 298 299 299 299 299 299 300 301 302 302 303 303 303 303 303 303 304 305 306 307 309 310 311 311 314 315 317 319 321 323 323 324 324 324 326 326 326 326 325 326 326 326 326 326 327 327 326 326 326 325 325 326 325 323 324 324 323
288 293 293 292 292 292 288 288 293 295 295 296 297 298 299 299 301 294 291 293 297 298 298 297 297 298 297 296 296 296 297 297 297 297 298 298 299 300 300 301 301 302 302 303 303 303 304 304 304 305 306 307 308 310 311 313 313 315 316 318 319 321 322 323 324 324 323 325 324 325 325 325 326 326 325 325 325 324 325 326 325 323 323 324 325 324 324
288 292 293 293 289 282 284 294 299 297 294 295 294 292 295 298 300 296 299 297 298 298 298 297 296 295 295 295 297 298 297 296 297 297 298 298 299 300 300 300 300 301 302 303 303 303 303 304 304 305 306 306 307 309 310 311 312 312 312 313 314 314 316 318 320 322 322 321 321 323 324 324 324 323 323 323 325 325 325 325 324 324 325 324 323 323 324
287 291 292 287 281 284 293 297 297 299 299 297 293 293 295 297 298 298 297 297 298 300 300 299 297 297 297 298 298 298 299 299 298 298 297 297 298 298 299 299 300 300 300 301 302 302 302 302 303 304 303 305 306 307 307 308 309 310 311 311 311 312 312 313 314 314 316 319 320 322 323 323 323 322 322 324 324 325 324 325 324 322 324 321 322 322 323
291 289 288 280 282 292 296 297 298 300 300 298 297 294 295 297 297 297 295 296 297 298 296 296 296 296 295 295 296 297 299 300 299 298 298 298 299 298 299 299 298 298 298 298 299 299 301 300 300 301 301 303 304 305 306 305 306 308 309 310 309 310 310 310 311 312 312 313 314 315 318 321 321 322 323 323 323 325 325 325 325 324 323 323 322 321 322
285 287 288 285 291 293 293 292 294 296 295 296 294 288 292 299 299 298 296 295 294 294 294 294 294 295 294 292 292 295 296 296 297 298 298 299 299 299 299 300 300 300 300 301 301 300 300 299 298 299 301 301 302 302 303 303 303 305 307 307 307 308 309 309 310 310 311 312 312 313 313 315 317 319 320 321 323 325 324 324 324 324 323 321 322 321 321
290 286 284 286 284 281 286 294 297 298 298 298 299 296 291 299 300 300 297 294 294 294 294 294 294 296 293 290 290 294 296 296 297 298 298 298 298 298 298 299 299 299 300 300 301 300 300 299 299 300 301 301 301 301 302 303 302 302 305 305 306 305 305 306 308 309 310 310 310 311 312 312 313 315 317 319 319 321 321 322 323 324 325 324 324 324 323
288 286 283 282 279 282 290 293 295 297 297 299 300 293 288 296 300 299 297 295 295 295 294 294 296 295 292 290 291 295 296 297 297 296 297 298 298 298 298 297 298 299 300 299 301 301 301 299 300 301 301 300 299 300 301 301 301 302 304 304 303 303 304 305 305 306 307 308 309 310 311 312 313 314 315 316 318 319 319 320 321 322 323 323 323 323 323
287 286 284 283 285 282 291 294 294 295 297 297 295 284 284 294 299 299 298 296 296 296 297 297 297 295 292 290 293 297 297 297 297 297 296 296 297 297 298 297 298 299 299 300 300 300 300 300 302 301 300 300 300 300 301 301 301 302 303 304 304 305 305 305 305 305 306 307 308 310 310 311 312 312 313 314 315 316 319 318 318 321 322 322 322 322 323
287 285 286 286 284 289 294 294 295 296 299 296 285 281 288 297 298 299 298 298 299 299 298 299 292 293 295 295 297 298 298 297 297 297 298 297 297 296 296 296 296 297 298 299 298 299 300 300 301 301 300 301 300 300 301 301 301 302 303 303 304 304 304 304 304 304 305 306 306 308 309 310 311 311 312 313 313 314 315 317 317 318 320 321 321 321 322
285 287 284 284 284 287 294 296 294 296 293 284 283 291 299 299 298 299 299 297 298 298 298 296 294 295 296 296 297 296 296 296 297 297 296 297 297 297 297 296 296 297 298 299 298 299 300 300 300 300 300 300 300 300 300 301 302 303 303 303 303 303 303 303 303 304 304 305 306 306 307 308 309 310 312 312 312 313 313 314 316 317 317 318 319 320 320
287 286 283 283 278 286 295 294 293 296 287 287 294 296 297 299 298 298 297 297 297 298 295 296 297 296 296 296 296 297 297 296 296 296 296 296 295 296 296 297 296 295 296 297 297 298 299 300 300 300 300 299 299 299 299 301 302 302 302 302 302 302 302 302 302 303 303 304 304 305 305 306 307 307 309 310 311 312 312 314 313 315 317 317 316 317 317
283 283 280 279 285 292 296 295 288 292 294 297 298 297 294 297 297 296 296 296 297 297 296 296 296 297 296 296 297 297 296 296 297 296 297 297 296 297 297 297 296 296 296 297 297 298 299 300 300 300 299 298 298 297 299 301 300 301 301 301 301 301 301 301 302 302 302 303 303 304 304 304 305 305 306 308 309 310 310 311 312 311 313 316 316 314 315
286 285 286 290 294 294 296 296 294 295 297 298 299 297 296 294 294 297 295 295 296 297 297 297 296 295 296 295 295 295 295 296 296 295 295 296 296 297 297 297 297 297 297 297 298 298 299 300 300 300 300 299 299 299 300 301 301 301 301 301 301 300 300 301 301 301 301 302 302 303 303 303 303 303 304 305 305 308 309 309 310 310 311 313 313 314 313
294 294 294 295 294 294 294 297 297 297 297 298 298 296 294 295 295 295 293 294 295 296 298 296 295 295 295 295 295 295 295 295 295 296 296 296 297 297 297 298 297 297 298 298 298 298 299 300 300 300 300 300 299 299 301 301 301 301 300 300 299 300 300 300 300 301 301 301 302 302 302 302 302 302 303 303 303 305 307 308 309 310 309 310 310 313 313
289 283 292 291 292 294 294 294 296 296 297 296 296 296 295 295 295 294 295 294 293 293 294 294 294 294 294 294 295 294 295 295 295 295 296 296 296 296 296 297 297 297 297 297 297 297 298 299 299 300 300 300 300 300 300 301 301 300 300 299 299 299 299 299 300 300 300 300 300 300 301 302 302 302 301 301 303 302 303 305 307 307 309 309 309 308 309
286 286 291 292 294 294 295 295 294 294 295 296 297 296 296 295 295 295 295 295 295 295 293 294 294 294 294 294 294 293 293 294 295 295 295 295 296 297 297 298 297 297 297 296 297 297 297 298 299 299 299 299 300 300 300 301 300 300 299 299 298 298 298 299 298 299 299 292 295 298 299 300 299 300 301 302 302 302 301 302 304 305 306 307 308 309 311
290 292 292 292 293 294 294 295 296 296 295 295 296 296 296 296 295 295 295 296 296 295 295 295 295 294 294 294 294 293 293 294 294 295 295 295 296 296 296 297 296 297 297 296 297 297 297 299 299 299 299 300 300 300 300 300 300 299 298 297 297 298 298 298 298 298 298 299 299 298 299 299 300 301 301 301 301 302 304 304 306 306 306 310 309 310 311
285 285 289 292 286 286 291 293 294 295 297 297 295 296 296 296 295 295 295 295 296 296 295 295 294 294 293 293 294 293 293 294 295 295 295 295 295 296 296 297 297 297 297 297 297 297 298 299 299 299 299 300 300 300 300 300 299 298 297 297 296 296 297 296 296 297 297 297 298 298 298 298 299 300 294 295 298 302 303 295 289 293 299 309 308 311 307
284 290 292 293 293 292 293 294 295 296 296 296 294 294 294 295 294 295 295 295 295 295 296 295 295 293 292 293 294 293 293 294 295 295 295 294 294 295 295 296 296 296 297 297 297 297 298 298 298 298 298 299 299 300 299 299 298 297 296 295 295 295 295 295 294 295 296 296 296 297 297 297 298 298 299 301 293 291 293 295 293 290 291 289 290 293 307
292 294 294 294 293 291 293 295 295 295 296 296 295 295 294 294 295 295 295 294 292 293 294 294 295 293 292 293 293 292 293 294 294 294 294 294 295 295 295 295 296 295 296 296 296 296 298 298 298 298 298 299 299 299 299 298 298 297 296 295 294 294 295 295 295 293 295 295 296 296 296 296 297 296 297 297 300 291 283 290 291 291 290 290 291 294 296
290 294 294 294 294 294 295 296 296 296 296 296 295 295 295 295 295 295 294 295 295 294 293 293 294 293 292 293 293 293 293 293 294 293 292 293 293 294 295 295 295 295 296 297 297 297 297 298 298 298 298 298 299 298 298 298 297 296 296 295 295 295 294 294 293 293 293 294 294 295 295 295 295 295 295 296 295 298 295 288 288 290 291 291 291 291 291
295 295 295 295 294 294 295 294 294 295 295 295 295 295 294 293 294 294 295 294 294 295 293 292 292 293 293 292 293 293 293 293 292 292 294 294 294 294 294 294 295 296 297 297 297 297 298 297 297 297 297 297 298 298 298 297 297 296 295 295 294 294 294 294 293 292 293 293 293 293 294 294 294 294 295 295 296 297 297 299 296 293 290 290 291 291 291
294 295 294 292 291 292 293 292 291 295 295 294 295 295 295 296 293 293 295 295 295 294 294 293 292 293 293 294 293 293 293 293 293 293 293 293 293 294 295 296 296 296 296 297 297 296 295 296 296 297 297 298 298 298 297 297 296 295 295 294 294 291 288 289 292 292 292 292 292 292 292 293 293 293 294 295 295 295 296 297 298 297 297 297 291 290 298
294 294 294 289 288 289 291 293 294 295 295 295 293 294 295 295 294 293 293 293 294 294 294 294 294 293 293 293 293 293 293 292 292 292 292 292 294 294 295 295 296 296 296 296 296 297 296 297 297 297 297 298 298 298 297 296 296 295 295 294 294 294 294 293 292 292 292 292 292 292 292 292 293 292 293 293 294 296 296 297 299 300 299 299 296 291 290
293 293 294 294 293 294 295 295 294 294 294 295 295 293 293 293 292 292 292 293 293 293 292 293 294 293 293 293 292 292 292 292 291 291 291 292 293 294 294 294 295 295 295 295 296 298 297 297 297 296 297 298 298 298 297 297 296 295 295 295 294 294 294 294 294 294 293 293 292 292 290 290 291 292 293 294 293 295 296 298 298 299 303 299 297 296 294
293 294 294 294 294 294 293 292 292 293 293 294 293 293 293 292 291 292 292 292 292 292 292 293 293 292 293 292 292 292 291 291 291 291 291 292 292 292 292 293 294 295 296 296 296 296 296 297 297 296 297 298 298 297 298 297 296 296 296 295 295 295 295 295 294 294 294 293 292 289 290 290 291 292 293 294 294 294 294 296 296 296 298 298 295 297 295
293 294 294 294 293 293 292 292 292 292 292 293 293 293 293 292 291 291 291 291 292 292 292 292 292 292 292 292 292 291 291 290 288 290 291 291 289 289 290 292 292 292 293 294 294 295 296 297 297 297 298 299 298 298 298 297 296 296 296 296 296 291 288 287 288 293 293 292 291 291 291 291 291 291 291 291 293 294 296 295 296 296 296 299 299 298 297
293 293 293 292 292 291 291 292 292 292 292 293 292 292 292 292 291 290 291 291 291 292 292 291 291 291 292 291 289 289 287 287 287 287 288 287 287 287 287 290 291 289 292 291 291 293 296 297 296 298 299 299 298 298 298 297 297 296 295 292 295 295 293 289 293 293 292 290 291 291 290 291 291 292 291 292 292 293 295 296 294 295 295 295 295 299 297
291 290 289 290 291 290 290 291 291 291 292 292 291 293 293 293 292 292 292 292 292 292 292 291 291 290 289 288 287 287 287 286 286 285 286 286 286 286 287 289 290 292 291 294 295 296 297 297 297 299 299 299 298 298 298 297 297 296 296 296 296 295 291 291 291 293 293 291 291 292 292 291 291 291 291 292 293 293 294 295 293 294 296 299 298 297 295
291 291 291 292 291 290 290 290 292 292 292 293 293 293 293 293 293 292 292 292 292 291 290 290 289 288 287 287 286 286 285 285 287 287 285 285 286 286 287 289 292 294 296 297 298 298 298 298 299 299 298 298 298 299 299 298 296 296 296 296 295 294 294 293 293 294 293 291 291 291 291 291 291 291 291 292 294 294 294 292 293 295 296 297 296 293 289
294 294 294 293 294 293 293 292 292 292 292 291 292 293 293 293 292 292 291 291 290 290 292 290 288 288 286 286 285 285 285 284 284 284 285 285 286 286 287 289 291 294 296 297 298 298 299 299 299 297 296 297 298 299 299 297 297 296 295 295 294 294 294 292 292 292 291 292 292 292 291 292 292 290 291 293 295 296 295 294 295 295 295 292 293 292 290
294 293 293 293 293 293 293 293 293 293 293 292 289 291 292 292 293 292 292 292 293 293 292 289 288 287 286 285 285 285 285 285 284 284 285 285 286 287 287 288 290 292 294 296 298 298 298 299 288 286 293 296 298 300 299 297 298 297 296 294 294 294 294 293 292 292 291 292 291 291 291 289 290 291 292 294 296 296 295 296 295 296 294 293 292 291 290
295 294 293 293 294 294 293 293 293 293 293 293 292 293 292 293 292 293 293 293 293 293 292 290 288 287 286 286 286 285 285 285 286 286 286 286 286 286 286 286 288 290 292 293 295 296 298 298 288 286 292 298 299 300 298 288 297 297 296 294 293 293 293 292 292 292 293 293 292 291 289 290 292 294 293 295 295 296 295 294 296 295 295 293 292 291 292
294 294 294 293 293 293 293 294 294 294 293 293 293 292 293 293 293 293 293 294 293 293 292 291 288 289 287 287 286 285 285 285 285 284 285 284 285 285 286 287 289 290 290 291 294 295 297 294 288 292 299 299 299 299 297 288 288 295 297 295 293 292 291 292 292 291 291 292 292 293 292 292 292 290 294 295 295 296 295 294 295 294 292 293 292 292 292
293 294 294 294 294 293 293 294 294 294 294 293 293 293 293 293 293 294 293 293 293 293 291 291 292 291 290 288 287 287 286 285 285 284 284 285 286 286 286 288 290 292 292 294 294 295 296 292 294 296 298 299 299 300 296 291 289 297 298 297 295 293 291 292 292 292 292 292 292 293 293 293 293 294 295 295 296 295 293 295 294 294 294 292 292 292 290
293 293 293 294 293 293 293 293 293 293 294 294 294 293 294 293 293 293 293 293 293 292 291 290 291 290 290 289 288 287 288 287 286 284 284 285 287 288 289 292 294 295 294 289 294 295 292 287 292 298 298 298 299 298 296 293 290 296 298 297 296 294 292 292 292 291 292 292 292 290 292 292 293 293 292 293 293 293 294 294 294 294 294 293 293 292 291
293 293 293 293 293 293 293 293 293 294 294 294 294 294 295 294 294 294 293 293 293 293 292 291 290 290 291 292 292 291 291 291 290 289 288 287 287 289 289 290 293 295 294 293 294 293 291 291 295 296 296 296 297 292 295 291 294 298 298 297 296 294 293 291 291 290 290 290 290 291 292 292 292 292 292 293 293 293 293 294 294 294 294 293 293 292 292
295 295 294 293 293 293 293 293 293 293 294 295 294 295 295 295 294 293 293 294 293 292 291 291 288 290 291 291 291 290 290 291 290 290 290 289 288 288 288 289 293 293 288 289 291 293 295 296 296 291 293 292 294 289 286 289 295 298 298 297 296 294 294 293 291 291 291 291 291 292 291 291 291 291 291 291 291 292 292 292 293 293 293 293 292 292 292
295 295 295 295 295 295 294 293 293 293 293 294 294 295 295 296 295 294 293 294 293 293 292 291 290 287 287 288 289 289 290 290 290 290 290 290 291 291 290 291 293 292 286 290 292 295 295 296 295 293 287 287 289 286 285 292 298 297 297 297 295 295 294 293 293 292 292 291 290 290 290 290 290 290 290 290 290 290 290 290 290 290 291 292 292 292 292
296 295 295 294 294 294 295 295 295 294 293 294 296 297 297 296 295 294 293 293 293 292 291 291 291 290 290 290 290 289 289 290 289 290 289 290 291 291 292 291 292 290 285 290 293 294 294 294 292 288 285 285 285 285 290 296 297 297 297 296 297 296 295 295 294 293 292 291 289 289 289 288 289 290 290 290 290 290 290 289 290 290 291 291 292 291 291
296 296 295 295 294 294 293 294 294 294 295 295 295 296 297 296 296 295 294 293 293 292 291 291 291 290 290 290 290 290 291 291 291 290 289 288 289 291 292 287 290 291 290 286 291 294 294 291 288 284 285 284 285 285 293 297 297 296 297 296 296 295 295 295 294 293 293 292 291 290 290 289 289 289 289 289 288 289 289 289 289 290 290 290 289 290 290
296 296 296 292 295 294 294 294 295 296 295 295 295 295 296 296 295 295 295 294 293 293 293 292 292 291 291 290 291 291 290 290 290 291 291 291 290 290 288 288 289 288 286 285 292 293 292 284 284 285 284 285 285 291 296 295 295 295 295 295 295 294 295 294 294 294 294 293 292 292 292 291 289 290 290 290 289 289 289 289 289 290 290 290 290 290 290
295 296 296 296 296 296 296 295 295 295 295 295 293 293 295 296 295 295 295 295 294 294 294 294 293 292 292 291 290 290 289 289 290 290 291 291 289 287 286 285 286 286 287 291 291 291 289 288 286 284 284 285 284 293 295 295 295 295 295 295 294 294 294 295 295 295 295 294 292 290 289 291 291 291 290 289 290 289 289 289 289 289 289 289 289 288 288
295 295 296 296 295 295 295 295 294 294 294 293 294 295 294 296 297 296 297 296 295 295 294 295 294 293 293 292 291 291 292 291 289 290 291 291 292 291 291 291 288 286 286 286 286 286 282 284 284 284 285 284 290 294 294 294 293 293 294 294 294 294 294 294 294 293 292 293 293 294 293 293 292 292 291 290 290 289 289 289 289 289 289 289 289 288 288
295 295 296 296 296 295 294 293 293 292 293 294 293 294 295 295 296 296 296 296 296 295 294 294 294 294 293 292 291 292 291 291 291 291 292 292 291 291 289 285 283 283 287 291 293 292 286 284 285 285 285 286 293 294 293 293 292 291 291 291 291 292 291 293 293 293 292 292 292 291 291 291 291 291 291 290 290 289 289 289 289 289 288 288 288 288 288
296 295 295 295 294 294 294 293 292 293 293 294 293 294 295 295 294 295 295 296 296 294 295 294 294 294 293 293 292 292 292 291 291 292 292 291 291 291 290 290 289 286 286 291 293 291 286 283 284 285 288 292 293 293 293 293 292 291 290 290 290 289 289 289 287 288 290 290 292 290 290 289 289 288 289 289 288 288 288 287 287 286 285 287 287 287 287
295 293 293 293 294 294 295 295 295 295 294 294 294 293 293 293 293 293 295 295 295 294 294 294 294 294 293 293 293 292 292 291 290 289 291 290 289 288 288 289 286 287 288 289 290 291 292 292 291 289 290 292 292 292 291 292 291 291 289 291 290 291 290 290 290 291 291 290 290 290 290 290 290 289 288 288 288 288 287 288 288 288 288 288 287 287 286
295 295 295 295 295 295 295 295 295 295 295 295 295 294 293 293 294 293 293 290 294 294 294 294 292 293 294 293 292 292 292 291 290 289 288 290 290 290 288 287 289 287 286 289 291 292 292 289 286 287 287 291 290 288 287 287 289 290 289 289 289 290 289 291 290 290 290 291 290 290 289 290 289 289 288 288 287 287 287 287 287 287 286 286 286 285 285
Wind_Speed
5 8 11 13 12 5 4 3 3 3 4 5 6 1 3 3 5 1 9 11 15 12 10 8 8 9 9 8 8 8 9 10 10 11 13 14 15 15 16 16 16 16 16 15 13 11 11 10 8 8 9 9 9 9 7 7 6 6 4 6 7 7 6 6 6 4 4 5 5 5 6 6 7 8 8 7 7 7 7 7 7 8 9 9 9 9 9
4 5 6 7 8 8 4 5 3 3 3 4 4 6 7 7 9 12 12 16 15 11 10 8 8 7 9 8 8 8 10 10 11 12 14 15 15 15 16 16 16 15 16 15 14 14 13 12 11 10 8 8 9 8 8 9 9 7 5 6 5 5 5 4 4 5 5 4 5 4 5 6 7 7 7 7 6 6 7 7 7 8 8 9 10 10 10
6 8 8 8 9 9 10 5 6 6 6 8 8 8 10 14 13 14 15 16 12 8 10 10 10 8 8 9 10 10 10 10 12 14 14 14 14 15 15 15 15 15 15 14 14 14 14 13 13 11 10 9 7 6 8 7 6 6 6 6 5 5 4 4 3 3 4 5 5 6 6 6 6 6 7 6 6 7 7 7 8 7 9 10 10 10 11
5 8 10 9 10 10 11 8 5 3 2 5 7 6 8 6 10 12 13 10 8 9 10 11 11 11 11 11 11 10 9 11 12 13 14 13 14 14 14 14 14 14 14 14 14 14 14 13 13 12 11 10 9 9 8 6 5 7 6 5 5 5 5 4 3 2 3 3 4 3 3 5 5 5 5 6 6 6 6 7 7 7 9 10 10 10 9
6 10 10 9 9 7 9 8 9 5 7 7 8 10 10 10 3 9 4 7 10 11 10 13 14 13 11 11 10 11 11 11 11 12 13 13 13 13 13 13 14 13 13 13 13 13 13 13 13 13 12 11 10 9 8 7 6 6 5 5 5 5 4 3 4 3 1 1 3 3 3 3 2 3 4 5 5 7 8 7 6 8 11 9 9 10 10
5 10 11 9 7 9 5 3 7 5 9 7 6 5 6 8 7 7 10 12 13 14 13 13 13 12 10 10 9 9 9 9 11 12 12 13 12 12 12 13 13 12 11 11 11 13 13 12 12 11 12 11 10 9 8 7 7 6 7 6 7 7 6 5 5 4 2 1 2 1 1 1 2 3 4 4 5 6 6 6 9 9 9 8 10 10 9
6 7 9 8 10 6 7 1 5 7 7 8 12 8 7 8 11 15 16 16 16 15 12 13 12 12 12 11 11 11 10 10 10 11 11 11 11 11 12 12 12 12 12 12 12 13 13 12 12 11 12 12 10 9 8 8 7 6 6 7 7 6 6 6 6 5 4 4 3 1 2 2 3 4 4 5 6 6 6 7 8 8 6 8 9 10 10
1 2 7 7 1 7 3 5 3 6 6 9 10 9 6 6 9 13 14 14 12 13 16 14 13 13 14 13 12 11 10 9 9 10 10 11 11 11 10 11 11 11 10 11 11 10 10 11 11 12 11 11 10 9 9 10 8 6 6 6 6 6 6 6 6 5 5 3 3 3 3 3 4 5 6 6 6 6 6 6 7 7 7 6 9 11 10
3 6 5 2 5 6 6 4 4 2 2 4 5 4 6 6 8 12 15 15 15 15 14 14 13 13 12 11 9 9 10 11 11 11 12 11 11 11 10 9 9 8 7 7 7 8 8 10 10 10 10 11 11 11 11 11 12 8 6 7 7 6 6 7 6 6 5 5 4 4 4 4 4 4 5 5 6 6 7 7 8 8 8 9 10 11 10
4 4 6 4 3 8 4 6 5 3 3 7 6 5 6 4 7 10 14 16 16 16 16 14 13 12 10 8 7 7 8 10 10 10 11 11 10 8 6 6 5 6 6 5 5 6 7 8 8 7 8 8 8 8 7 6 8 9 9 6 7 7 6 6 6 7 6 6 6 6 6 6 5 5 5 5 6 5 7 8 9 8 8 9 9 10 10
5 6 9 5 6 2 2 6 5 5 3 4 5 3 4 5 7 9 12 14 14 14 15 15 13 9 7 7 8 8 9 8 8 9 9 8 8 8 8 6 4 5 3 2 2 2 4 4 2 2 3 3 3 5 5 5 6 4 6 6 7 7 7 7 6 6 6 6 6 6 6 7 6 7 6 6 6 6 6 7 8 8 9 8 9 9 10
7 8 8 5 3 3 2 5 4 4 3 3 5 7 4 7 9 9 11 12 13 13 12 12 8 3 4 9 9 9 9 9 8 7 7 7 6 7 7 6 5 4 3 4 4 5 5 5 4 4 4 4 4 4 4 5 5 5 5 7 8 8 8 8 8 7 7 7 6 7 7 7 7 7 7 7 8 8 8 8 8 8 9 9 10 10 9
6 7 8 3 4 4 5 6 6 5 3 4 4 4 6 7 10 9 10 11 11 11 11 8 4 9 11 11 10 9 9 9 9 8 6 6 5 6 6 5 5 5 4 4 5 5 4 4 4 4 4 4 5 4 5 5 5 6 6 7 7 7 8 8 8 8 8 7 8 7 8 8 8 8 7 8 8 8 9 8 9 9 10 9 9 10 10
6 5 7 2 6 4 7 3 3 5 3 3 2 7 5 7 8 9 8 8 7 7 7 8 10 10 11 11 9 9 8 7 7 6 6 5 5 5 4 3 4 5 3 3 3 4 4 4 5 5 5 6 6 6 6 6 7 7 7 8 8 8 9 8 8 8 8 9 9 8 8 9 9 8 8 9 9 9 9 10 11 11 10 10 10 9 9
3 3 6 6 2 4 7 5 1 7 2 5 5 7 7 5 9 9 8 6 6 6 8 9 9 10 10 9 9 8 7 6 6 5 5 5 4 4 3 3 5 5 3 3 4 3 4 4 4 4 5 5 5 6 6 7 7 8 8 8 9 9 9 9 9 10 10 10 9 8 9 9 10 10 10 10 10 10 11 11 12 12 11 10 11 10 9
4 5 2 4 4 3 6 6 2 6 8 4 6 7 8 7 7 8 7 6 6 8 8 8 7 8 9 8 7 7 7 6 5 5 4 4 3 3 4 3 5 5 3 3 3 3 3 3 3 3 3 3 3 4 5 4 5 6 6 7 7 8 8 9 10 10 11 11 11 10 11 11 11 11 11 10 11 10 11 11 11 12 11 10 10 10 10
2 4 3 3 1 5 6 7 7 8 7 5 5 7 7 7 7 6 7 7 6 6 7 6 6 7 7 7 6 5 5 5 5 4 4 4 4 4 4 4 5 5 4 4 3 3 3 2 2 2 2 3 4 5 4 3 5 6 6 7 7 7 8 8 9 10 11 11 12 12 11 11 12 12 12 12 12 11 11 12 12 12 12 11 11 12 12
8 7 6 4 5 5 7 7 7 7 8 7 8 8 7 7 9 7 6 6 5 4 2 5 6 6 6 5 5 5 4 4 4 3 3 4 4 4 4 4 6 6 5 4 3 4 4 4 3 3 4 5 6 7 7 7 8 9 9 9 9 10 10 9 9 9 10 11 12 13 13 13 13 12 13 12 12 11 11 11 12 13 13 13 12 11 10
3 4 5 6 6 6 7 8 8 9 7 7 7 8 7 7 8 8 7 6 5 6 6 6 5 5 4 4 4 4 3 3 3 3 3 4 4 4 5 4 5 5 4 4 4 4 4 4 3 4 5 5 6 7 9 10 10 10 11 11 12 11 12 11 11 11 12 10 9 11 12 12 12 12 13 13 13 13 13 12 12 13 13 13 12 11 10
0 7 7 7 7 6 6 6 6 7 7 7 7 7 7 7 7 6 6 5 6 4 5 5 4 4 4 4 4 4 3 3 3 4 4 4 4 4 4 5 6 5 3 4 4 5 6 6 7 7 7 9 9 10 10 11 11 12 12 12 12 13 14 13 13 13 13 12 12 11 10 11 13 13 13 12 12 13 14 13 13 13 14 13 12 8 2
7 9 8 7 7 6 5 5 5 6 6 7 8 7 7 7 7 7 6 5 5 6 5 4 3 3 4 5 4 4 4 3 3 4 4 4 4 5 5 5 5 5 3 4 5 5 7 7 8 8 9 10 10 11 11 11 12 12 12 14 13 14 13 13 12 12 12 12 13 13 13 12 12 13 13 13 13 13 14 13 10 10 10 6 4 4 3
2 2 6 8 3 3 6 6 6 6 5 6 6 6 5 3 4 4 4 6 5 4 5 4 5 4 5 5 4 5 4 4 4 4 5 5 5 5 5 4 5 4 4 5 6 6 7 7 8 9 10 10 11 11 12 12 12 13 13 13 13 12 11 11 11 11 11 11 11 12 12 12 12 13 15 16 15 12 11 9 10 9 8 3 3 1 5
1 4 7 3 3 4 7 6 6 5 3 4 3 3 1 4 2 4 3 1 4 4 4 4 3 5 5 5 5 5 5 5 4 5 5 6 6 6 6 5 3 5 5 5 6 7 7 8 8 9 10 11 11 12 12 12 13 13 12 11 10 10 10 10 10 10 11 11 11 11 11 12 12 13 14 13 15 15 8 4 6 6 8 9 9 11 6
5 5 5 1 2 5 6 6 4 4 1 1 3 2 2 3 4 3 1 1 4 4 6 3 9 5 5 5 5 5 6 5 6 7 8 8 7 6 6 6 5 4 4 5 6 7 7 8 9 10 11 11 12 12 12 12 12 11 11 10 10 10 11 11 10 9 11 11 12 12 12 12 12 12 12 14 10 2 4 4 5 4 4 5 10 11 11
4 5 5 3 4 5 4 4 3 3 2 4 3 6 6 2 0 1 3 7 4 5 4 6 5 3 4 5 4 4 5 6 6 8 8 7 5 5 5 4 4 4 4 5 6 7 7 9 10 10 11 12 12 13 12 12 11 11 11 11 11 11 11 11 11 10 10 11 11 11 12 12 12 12 12 12 13 11 1 5 5 5 4 4 3 9 13
3 4 4 5 4 3 2 3 3 2 3 2 2 0 2 6 8 3 4 3 3 1 2 2 3 1 3 4 5 6 6 6 6 5 6 6 6 5 4 4 4 4 5 5 6 7 8 9 10 10 11 12 12 12 12 12 11 11 11 11 11 11 10 11 11 10 10 10 11 11 10 11 10 11 11 12 12 14 12 5 3 2 1 2 3 7 8
2 2 3 2 1 1 1 5 4 2 3 2 2 2 2 7 4 4 4 1 2 2 4 3 3 4 5 5 6 6 7 6 6 5 6 6 6 4 4 3 4 6 7 6 7 7 8 10 9 10 11 11 12 12 11 11 11 11 11 11 11 11 11 9 10 12 11 11 11 10 11 10 10 10 11 11 12 13 13 12 8 9 9 7 5 5 6
2 2 2 2 1 1 2 3 2 1 1 2 1 4 7 4 3 4 3 2 3 3 4 6 5 6 6 6 6 7 6 7 6 6 7 6 5 4 4 5 6 6 6 7 7 7 7 8 9 10 11 11 11 12 12 11 11 11 11 11 11 11 11 10 9 10 10 10 10 10 10 10 9 10 10 12 12 12 13 12 10 9 9 10 8 6 8
2 2 0 1 2 2 1 1 1 1 2 2 2 2 3 3 3 3 3 3 3 4 4 4 4 5 5 5 5 6 6 6 6 7 7 6 5 5 5 7 7 7 6 7 8 7 7 8 9 10 10 11 12 12 11 12 11 11 11 11 10 9 9 9 9 8 9 10 9 9 7 6 8 10 11 12 11 12 12 11 10 8 6 7 9 7 7
2 1 1 1 2 3 3 3 2 2 4 5 3 4 4 2 4 4 2 3 4 4 4 4 5 5 5 6 7 6 6 7 7 7 7 6 5 5 6 7 7 7 7 6 4 7 8 8 9 10 10 11 12 11 11 11 11 11 11 11 9 8 9 10 10 10 10 9 8 4 4 6 8 10 11 11 11 11 11 10 6 4 4 4 7 9 8
3 3 2 1 2 2 4 3 3 3 4 2 2 4 4 3 4 3 4 3 3 4 4 5 5 6 6 5 4 5 5 5 4 5 6 4 3 3 7 7 5 4 5 7 8 8 9 9 9 9 10 12 11 11 12 12 10 10 10 9 9 9 8 7 7 7 7 6 3 5 6 7 8 8 9 10 11 10 10 9 4 2 7 7 7 7 8
5 4 4 4 4 4 4 3 3 5 4 1 3 5 4 5 4 5 4 4 3 4 5 5 5 4 2 3 4 4 2 2 3 3 2 2 3 4 5 8 8 7 7 5 7 9 10 9 9 9 10 11 11 11 12 11 10 9 9 9 9 9 7 8 8 5 4 3 3 4 5 6 7 8 9 9 9 10 8 3 4 4 1 3 4 6 7
6 5 5 5 4 4 4 4 4 5 5 4 3 4 5 4 4 3 4 4 4 5 3 3 3 3 2 2 1 2 2 3 4 4 3 4 4 4 4 5 8 8 5 7 9 10 9 7 8 8 10 10 9 11 11 12 10 8 9 9 9 9 9 7 4 4 3 3 4 5 5 6 6 8 8 9 9 5 4 3 1 3 2 6 7 7 4
5 5 4 2 3 5 5 5 3 5 4 2 3 6 5 5 3 3 4 5 4 3 3 2 1 2 2 2 1 0 2 5 2 1 0 3 4 4 4 6 7 8 7 7 7 5 5 7 7 7 9 10 9 10 11 12 9 8 8 9 8 9 8 8 8 7 6 4 3 4 6 6 7 7 9 9 7 5 2 1 3 1 1 9 6 7 9
4 2 3 2 1 2 3 4 3 4 3 4 6 8 6 4 5 3 8 7 5 5 2 2 2 3 3 2 1 1 2 4 5 4 4 3 3 4 5 7 8 6 6 6 5 4 5 6 6 8 10 10 9 9 8 10 9 7 8 8 8 8 7 7 6 6 5 5 5 5 5 5 6 7 8 8 6 4 2 1 2 1 2 8 6 8 6
4 5 4 2 2 3 3 3 3 3 1 5 3 2 2 4 5 5 3 4 2 2 1 3 3 3 3 3 2 3 4 4 5 6 6 4 3 3 3 5 7 6 7 6 2 4 7 4 10 11 9 8 8 7 8 8 8 9 7 7 7 7 7 7 6 5 5 4 4 4 4 5 6 7 7 5 3 4 1 0 0 2 6 5 7 7 7
6 5 3 2 2 2 3 3 3 3 3 4 5 6 6 5 3 4 4 5 5 3 1 2 3 4 4 4 2 1 2 3 3 3 3 3 2 2 3 4 6 6 7 4 4 7 7 6 11 13 11 7 6 6 7 5 8 8 7 7 6 6 7 6 6 6 6 5 3 2 2 4 3 4 4 3 2 1 1 1 1 3 5 6 6 7 7
6 4 2 1 1 1 2 2 3 2 2 4 4 5 6 5 5 5 4 4 3 3 2 2 3 5 4 3 3 3 4 3 4 4 4 4 3 3 4 5 4 2 2 2 5 5 5 8 10 10 8 6 6 7 7 6 9 9 6 6 6 6 6 6 6 6 6 6 5 3 2 2 2 2 2 2 2 2 2 1 3 5 5 5 6 7 7
5 3 2 1 2 1 2 1 2 3 3 4 5 5 5 5 3 3 4 3 3 1 3 4 4 4 5 4 4 4 5 5 5 4 4 4 4 4 5 3 2 2 2 4 6 6 5 7 9 9 7 6 7 6 8 8 12 9 7 7 7 6 6 6 6 6 6 7 7 5 5 4 2 3 4 4 5 4 5 5 5 6 7 6 7 7 7
5 5 4 3 3 2 2 2 2 3 4 4 5 5 5 5 5 6 5 3 2 2 3 4 4 4 4 5 6 6 5 5 5 5 5 4 5 6 7 7 5 2 2 3 5 4 6 9 9 6 6 6 7 6 7 10 12 7 6 7 7 7 6 6 6 6 6 7 7 7 7 6 6 6 6 5 5 4 4 5 5 6 8 9 9 9 10
7 6 5 5 5 4 3 2 3 3 4 4 5 5 5 4 4 4 3 3 2 2 3 3 4 4 5 5 5 5 4 5 6 7 7 5 5 6 5 1 3 1 2 4 5 6 8 8 5 6 6 7 6 8 7 11 10 5 6 6 7 7 7 7 7 7 6 6 6 7 7 7 7 7 7 7 7 6 6 5 5 6 8 9 9 9 10
8 7 7 7 6 6 5 4 4 4 4 5 5 6 6 6 5 5 4 3 2 2 3 3 2 4 4 4 2 3 3 4 5 5 5 5 5 2 3 1 2 3 6 4 7 8 5 2 4 6 7 7 7 10 12 10 8 4 6 6 7 7 7 7 7 7 7 6 6 6 6 7 6 6 7 7 6 7 6 6 6 7 7 8 9 10 10
8 9 9 8 8 8 7 6 5 5 5 5 5 6 6 7 6 6 5 5 4 4 3 2 6 5 4 5 4 4 3 4 4 4 5 5 4 3 4 3 2 5 5 3 6 5 2 3 4 6 8 7 8 12 14 9 4 5 5 6 6 6 7 7 7 7 7 7 7 7 7 6 6 6 7 7 7 6 7 7 6 5 7 8 9 10 11
8 8 9 9 9 8 7 6 5 5 5 5 5 6 7 6 6 7 6 5 5 4 4 3 3 3 3 3 3 3 4 4 4 4 4 4 5 4 3 2 2 5 5 4 4 4 2 4 5 8 10 11 13 15 10 6 5 4 5 5 5 6 6 6 7 7 7 7 7 6 7 8 7 7 7 7 7 8 8 7 7 7 9 10 10 11 10
7 8 9 10 9 8 8 7 7 5 4 3 5 6 7 7 7 7 7 6 6 5 4 4 3 3 3 3 3 4 3 2 2 2 3 3 4 5 5 3 2 1 3 5 5 3 3 5 6 8 9 12 13 15 9 3 4 4 5 4 5 5 5 6 6 7 7 7 7 7 7 8 8 8 8 9 10 9 10 10 8 7 7 8 7 8 8
8 8 8 9 10 9 8 7 6 5 5 5 6 6 7 6 7 7 7 7 6 5 6 5 4 3 3 3 3 2 2 3 2 2 2 3 4 5 4 4 3 4 4 7 4 3 5 6 7 8 10 11 12 11 3 4 4 4 4 4 4 4 4 5 6 6 6 7 7 7 7 7 7 7 7 7 8 8 7 7 7 8 7 7 7 7 6
8 7 7 8 9 9 10 8 6 7 6 6 6 6 6 7 7 7 7 7 6 5 5 5 5 4 3 3 3 3 4 4 4 3 2 2 4 4 6 4 4 2 4 2 3 3 4 5 6 8 10 11 13 8 4 3 3 3 3 4 4 4 4 4 5 6 6 7 7 7 7 7 6 7 7 7 7 6 6 7 7 8 8 8 7 8 7
8 7 6 7 8 8 8 8 7 8 7 7 5 3 4 6 6 7 7 6 6 6 5 5 5 5 5 4 4 3 3 2 2 4 4 2 3 4 4 2 4 5 0 3 3 5 4 3 5 8 9 10 9 3 3 3 4 4 3 4 4 4 3 3 4 3 4 4 5 5 5 6 7 7 5 6 6 6 6 6 6 6 6 6 6 6 6
7 7 6 6 7 8 8 7 7 7 7 7 6 5 4 5 6 7 7 7 7 7 7 6 6 5 5 5 4 3 3 3 2 1 4 2 2 3 5 6 5 4 5 4 3 4 5 1 4 7 10 11 5 3 3 4 4 4 5 4 3 3 4 3 3 2 3 4 5 5 5 6 6 6 5 6 6 5 7 6 6 6 6 6 6 7 6
7 6 6 6 6 7 7 7 7 7 7 7 5 4 4 6 6 7 6 7 7 6 6 6 6 6 6 6 5 5 4 4 4 2 2 2 1 2 3 3 4 3 3 4 0 2 7 4 5 6 8 2 3 3 4 4 4 4 3 4 4 4 6 6 6 6 5 5 5 5 4 4 4 6 6 5 5 5 5 6 6 7 7 6 5 5 5
7 6 7 6 6 5 6 7 7 7 7 6 4 3 8 7 6 5 5 6 7 7 7 7 6 6 6 6 6 5 5 5 5 4 3 4 4 3 2 3 4 3 4 3 2 1 1 2 1 1 3 1 2 2 2 3 2 3 2 2 2 3 3 3 4 4 5 4 4 4 5 5 6 5 5 5 5 5 5 5 5 4 4 4 4 4 5
8 7 6 5 5 5 5 6 7 8 8 7 7 8 9 8 8 6 6 6 7 7 7 7 7 6 6 6 6 6 6 5 6 6 5 4 5 5 5 4 4 4 5 4 2 2 0 2 3 0 6 1 2 2 4 1 2 2 2 4 3 3 4 4 4 3 3 5 4 5 6 5 5 5 5 5 5 6 5 4 4 4 4 4 5 5 5
Wind_Direction
308 307 308 329 328 338 352 24 20 298 265 226 221 230 297 320 262 277 132 122 114 124 123 123 123 129 125 129 117 119 121 117 117 108 95 89 84 81 77 74 73 72 73 64 64 80 95 88 87 110 115 109 108 106 103 113 115 118 132 139 146 144 139 146 138 145 157 172 182 194 210 210 210 209 214 209 204 206 203 210 209 215 209 204 200 208 209
193 233 264 274 282 338 355 38 30 63 59 67 63 71 55 82 95 117 126 111 107 118 126 124 112 119 127 119 121 122 119 114 109 101 91 86 83 80 77 74 71 68 67 69 71 65 58 64 76 83 94 119 129 124 126 138 131 112 120 129 113 111 122 126 148 157 178 167 192 189 203 204 208 205 208 210 214 219 214 216 210 219 226 216 208 206 211
211 213 229 228 247 248 273 336 7 48 79 72 68 76 82 89 93 99 102 102 106 115 136 128 130 126 128 135 129 117 114 110 97 92 89 85 83 81 80 76 72 68 64 62 61 58 59 58 57 61 71 71 61 99 125 111 98 118 116 98 94 101 113 121 131 143 158 172 186 193 189 214 205 203 205 206 220 227 230 231 234 227 229 225 215 214 215
210 198 205 211 219 229 233 236 244 285 37 64 46 57 24 109 125 118 113 107 123 135 142 135 131 131 126 123 119 117 107 95 94 90 88 84 80 77 74 70 69 66 62 55 52 50 47 48 48 46 48 55 67 60 39 56 82 106 95 88 109 118 121 134 121 120 138 159 177 177 195 194 196 208 219 220 220 224 232 237 243 244 232 231 223 217 219
220 194 193 192 194 208 228 222 218 141 92 94 85 65 46 32 114 158 167 101 129 141 146 143 138 129 120 108 103 100 95 91 87 82 80 78 73 70 67 66 63 58 55 52 45 42 44 38 39 36 31 40 43 42 52 55 77 67 70 82 77 66 53 53 97 117 158 158 146 160 185 203 194 221 218 221 219 233 233 226 235 230 236 229 242 225 219
239 193 192 189 206 224 233 39 14 130 144 142 108 76 40 35 40 71 96 120 126 140 149 140 133 124 113 103 91 81 85 83 77 71 68 69 67 60 55 52 50 45 45 42 38 35 36 35 31 33 29 24 24 26 31 42 34 60 83 75 66 58 58 57 43 28 26 43 354 3 340 258 243 234 240 252 250 237 236 234 226 226 231 239 232 223 216
262 183 182 206 223 224 68 190 60 52 73 100 110 99 78 82 90 100 107 125 145 142 141 133 120 114 104 99 100 101 96 89 89 92 86 74 64 59 55 47 43 40 32 31 30 26 20 21 22 24 25 13 10 21 21 23 25 36 49 60 62 57 49 41 43 32 17 19 358 323 269 245 244 243 243 240 236 240 233 226 222 214 211 239 248 233 218
322 198 194 208 170 75 96 84 82 63 108 112 113 97 104 120 121 122 123 126 121 111 116 123 123 110 101 88 73 69 76 86 94 88 81 75 70 62 55 53 46 36 33 24 24 20 15 16 17 15 15 3 5 9 8 7 3 20 27 47 55 40 37 35 25 24 20 6 12 322 292 256 245 237 234 239 240 235 234 233 228 204 208 227 246 239 220
220 227 208 215 114 151 103 124 115 225 141 199 220 232 126 139 141 140 135 132 127 129 127 121 119 115 105 95 82 70 72 72 74 74 72 72 68 63 57 55 57 49 30 34 27 22 22 19 15 12 3 5 2 1 6 360 349 357 18 20 23 24 19 16 9 5 5 354 355 334 319 303 276 262 255 245 240 238 235 234 230 227 210 221 229 226 213
243 269 245 180 204 241 141 72 78 6 9 359 7 82 120 160 156 140 138 137 140 139 138 135 137 142 126 117 113 105 95 91 92 97 105 112 111 106 101 75 57 47 31 29 32 28 26 27 10 2 353 358 353 346 359 353 337 350 338 357 349 358 359 353 349 350 344 347 338 339 326 304 307 303 291 277 268 242 242 240 240 238 240 234 227 228 217
256 260 265 253 251 44 12 88 23 44 353 317 336 273 189 147 153 150 141 139 141 141 143 146 156 173 158 134 123 127 115 97 90 86 72 69 78 80 68 61 71 101 129 133 140 118 94 54 347 322 323 303 343 319 327 335 314 331 314 343 335 342 336 333 330 330 327 328 324 324 319 319 322 313 296 285 272 266 257 252 248 245 241 240 237 234 232
246 251 260 276 68 118 56 46 11 21 341 50 269 235 169 146 143 154 146 149 148 145 148 158 167 220 195 145 130 120 110 100 87 81 87 80 71 70 69 53 25 35 28 33 38 26 24 18 21 341 339 338 327 317 323 318 314 326 340 335 333 331 331 330 322 313 308 310 314 312 310 308 306 303 305 295 284 276 269 262 254 244 239 238 237 237 232
261 271 268 141 124 66 10 21 348 8 325 293 221 252 123 168 137 147 141 149 151 152 157 167 98 73 67 96 108 108 109 108 103 95 79 75 60 59 58 52 21 10 23 27 11 11 16 358 355 338 336 331 315 323 318 308 329 334 332 321 323 326 318 312 309 308 312 312 307 303 297 297 295 290 286 287 285 279 273 267 268 261 248 242 236 233 233
256 258 252 285 56 14 342 12 358 357 286 206 103 87 127 118 135 130 134 126 142 147 166 91 83 92 104 106 110 109 102 94 84 80 77 74 74 69 71 89 47 7 351 31 358 4 359 352 352 341 346 333 324 335 323 332 339 329 326 326 317 308 303 302 302 301 296 295 297 294 290 286 287 283 279 278 279 273 265 263 260 255 254 248 239 236 233
293 254 257 245 209 61 324 356 162 14 336 93 136 111 83 108 109 113 106 119 107 105 95 95 109 106 108 109 102 97 92 91 84 76 68 63 61 51 40 45 50 359 347 9 359 352 354 359 349 342 342 332 336 342 325 329 334 332 326 317 316 315 314 310 305 299 294 288 283 280 278 276 274 274 274 272 268 266 264 261 261 261 254 252 250 241 235
303 308 324 34 43 24 29 325 51 65 55 75 103 119 114 106 105 103 107 105 117 124 128 125 120 116 106 96 97 92 86 85 82 75 77 66 48 36 26 33 32 337 344 3 344 1 346 5 339 333 330 318 339 306 295 314 305 300 301 308 313 312 309 306 303 301 299 294 286 280 274 271 266 267 267 269 269 265 265 255 248 247 244 238 237 245 241
333 37 88 150 117 55 64 77 95 94 87 93 106 99 123 128 113 114 110 108 109 122 125 122 122 104 84 87 79 74 69 74 67 45 59 48 30 14 13 18 17 339 352 351 346 2 354 346 340 316 299 292 302 305 321 305 313 320 318 311 306 301 300 299 304 304 301 300 296 289 284 277 273 268 264 259 258 258 256 253 251 247 246 240 238 235 231
90 68 64 99 88 80 85 92 96 117 121 112 114 119 111 94 68 55 85 97 86 74 87 127 89 68 73 72 69 60 63 51 59 49 39 36 19 11 360 13 9 339 342 337 3 353 345 356 349 355 334 330 327 337 333 333 329 325 323 320 313 310 309 304 296 292 291 294 292 289 284 279 276 271 264 260 257 254 252 252 250 246 246 244 241 231 228
214 90 105 94 106 105 87 80 69 60 72 73 75 89 95 101 99 98 90 87 70 58 54 54 65 70 55 63 62 48 49 44 36 34 45 22 8 2 2 13 359 335 344 343 1 345 344 342 341 339 330 323 323 321 326 322 321 317 314 310 306 304 302 303 303 300 295 286 288 294 296 293 280 266 260 258 255 251 251 254 254 251 249 248 244 239 231
78 124 124 119 112 122 123 121 112 109 99 99 96 97 98 98 94 100 102 102 91 85 77 55 62 78 67 50 34 17 20 24 21 24 19 1 360 359 359 7 353 325 350 346 351 345 336 334 331 333 329 326 326 328 327 323 320 317 312 311 309 305 301 299 296 295 294 298 291 279 275 276 276 276 274 264 254 254 253 248 249 250 250 251 252 257 255
110 120 133 133 135 118 115 101 86 109 130 127 127 122 121 118 112 108 95 76 79 80 72 64 46 62 80 59 24 4 3 13 25 18 360 360 353 354 350 359 332 315 355 340 319 327 330 336 337 329 331 329 328 325 322 320 320 315 311 310 304 301 299 295 292 293 292 292 291 290 287 285 281 278 272 264 263 267 261 257 258 262 259 257 273 282 260
191 155 148 155 159 167 146 130 125 125 128 129 133 140 116 119 110 104 109 91 86 79 70 46 41 20 29 30 20 354 3 17 18 358 0 344 353 345 347 333 314 305 344 334 334 333 331 338 334 334 330 327 324 323 325 323 320 316 313 307 304 302 301 297 295 294 291 289 290 291 286 283 286 277 266 270 280 286 283 31 36 69 81 85 15 320 86
28 99 153 139 12 77 131 129 128 126 110 105 131 119 130 89 63 40 3 239 185 200 153 66 58 49 12 16 6 4 359 4 358 356 351 353 340 335 331 307 317 350 331 330 328 334 334 335 333 329 326 323 325 325 323 319 317 313 310 307 303 299 297 294 296 299 294 291 288 285 289 290 287 289 292 267 237 247 273 84 74 52 94 118 81 35 11
81 86 133 19 12 110 123 124 135 130 160 232 88 76 106 289 14 340 57 19 28 337 345 244 78 27 7 356 11 0 352 350 0 360 357 335 325 337 331 324 339 334 329 326 329 330 332 329 325 326 325 325 323 323 321 319 314 309 303 302 298 295 294 293 292 285 284 285 285 283 282 284 284 289 284 283 282 88 49 47 47 38 30 86 108 112 94
89 99 75 72 107 115 135 127 120 89 75 339 7 38 29 26 266 148 328 318 349 334 328 328 35 35 343 352 322 344 336 355 355 353 316 305 325 322 319 323 314 318 322 324 323 324 324 326 327 326 322 322 325 325 325 319 312 304 302 299 298 295 293 291 287 285 279 277 277 279 279 278 282 281 282 281 278 272 139 76 46 14 354 329 143 126 109
99 106 107 92 103 102 112 135 117 108 122 141 161 52 127 51 14 0 285 307 303 5 327 345 309 337 5 319 326 337 331 338 6 325 314 323 327 320 311 315 313 300 308 315 318 315 323 327 317 319 321 324 329 329 328 321 313 305 302 299 294 292 289 287 286 286 281 276 275 275 274 278 281 287 284 284 279 277 269 202 188 184 199 117 178 176 153
70 118 155 209 180 81 291 353 78 106 90 71 37 16 8 118 136 212 247 168 301 336 338 347 339 275 267 288 318 324 324 320 315 321 327 323 315 311 314 304 304 311 307 305 309 318 307 289 292 317 325 330 331 328 326 320 312 306 300 295 292 284 274 270 277 278 275 271 271 268 271 270 275 278 278 274 275 273 272 265 228 206 206 184 181 217 183
138 143 295 289 332 73 98 135 148 137 80 68 141 234 213 182 300 293 276 244 226 231 235 250 280 316 316 307 313 314 314 311 324 322 318 315 315 312 310 316 309 305 304 300 302 298 303 322 325 325 327 333 334 335 332 326 316 307 303 300 296 290 290 283 275 273 269 267 263 264 264 267 270 281 296 295 286 279 275 265 265 251 217 182 168 157 129
181 136 147 326 30 23 49 70 146 208 106 69 16 330 353 324 245 263 271 264 293 291 265 266 268 275 289 303 305 300 298 305 314 321 316 310 305 308 313 316 310 302 294 284 278 304 324 320 327 333 335 339 336 333 330 324 318 309 306 307 309 308 304 301 296 284 277 266 264 259 263 271 279 279 279 278 278 280 277 267 254 242 252 130 125 123 126
171 157 225 178 187 185 199 233 238 221 224 222 227 274 307 286 253 223 229 268 262 268 294 296 273 271 306 321 313 320 328 326 321 308 308 295 303 312 308 307 302 290 268 258 324 351 312 320 334 336 336 336 336 334 326 328 323 317 314 316 311 313 318 313 309 297 285 270 261 264 253 260 265 269 272 274 281 286 289 271 271 289 106 158 169 158 165
189 191 240 317 298 265 257 270 275 268 274 266 269 264 238 235 254 266 268 269 274 277 276 279 315 328 314 312 348 356 357 4 341 307 296 306 341 328 308 302 300 309 310 324 328 312 296 312 332 333 336 336 340 336 331 336 331 324 322 323 324 313 289 282 280 301 302 292 264 250 263 265 269 269 269 276 276 281 278 263 279 248 194 196 168 169 140
199 191 195 208 223 240 248 256 265 271 277 288 237 235 240 238 232 244 262 265 270 287 288 317 329 321 354 19 5 357 351 337 305 292 302 304 292 278 291 293 289 287 290 295 283 280 278 309 331 335 338 340 343 333 340 344 334 329 330 330 330 334 353 332 330 348 331 310 271 263 265 271 277 277 280 268 263 267 277 261 228 236 243 230 150 114 123
220 216 215 221 240 246 276 273 283 275 258 224 227 247 240 239 262 270 250 256 275 276 321 344 337 22 34 25 22 349 343 306 270 273 268 262 274 285 289 294 289 287 276 268 265 268 280 321 331 337 342 338 329 321 345 349 340 334 332 337 339 344 338 347 356 316 16 331 301 280 278 275 280 282 276 272 269 273 247 271 297 268 207 89 88 93 103
230 251 318 330 296 311 312 315 288 260 279 272 217 236 239 240 237 235 238 240 261 327 329 326 49 100 89 87 84 326 308 298 269 169 227 293 295 298 298 288 285 283 282 283 279 281 316 327 335 349 338 331 325 328 351 356 349 337 341 345 343 344 344 347 343 354 353 339 312 292 282 284 285 282 283 277 268 261 284 295 262 274 181 100 86 86 85
242 257 248 255 296 304 319 300 303 288 256 229 212 223 225 217 209 201 64 9 323 277 271 147 139 119 125 135 135 201 253 276 296 290 282 291 307 302 292 303 303 300 291 278 279 305 332 322 5 352 330 315 312 331 7 4 357 353 355 348 342 342 347 354 351 358 351 343 336 318 304 296 290 294 288 292 286 279 286 309 350 284 63 88 102 105 99
211 224 222 209 251 289 294 296 296 300 257 219 219 267 259 232 218 239 215 229 304 333 149 143 143 139 142 163 207 203 228 262 273 275 266 261 268 287 306 306 308 297 290 274 288 345 318 342 32 348 323 298 301 346 22 0 354 359 3 358 350 347 351 2 0 359 2 352 342 320 306 293 290 287 291 278 260 274 292 38 95 95 90 95 104 117 118
221 233 242 266 294 319 320 306 301 269 208 194 190 207 214 243 260 246 246 261 249 230 216 162 161 166 190 193 222 251 229 241 265 292 308 321 317 311 296 290 290 285 286 283 11 350 314 5 4 322 299 292 335 0 36 352 341 334 351 9 7 1 359 3 6 359 360 8 360 309 282 295 302 295 261 251 240 279 8 76 39 61 82 97 110 123 133
219 220 200 254 295 288 293 302 277 257 181 186 192 203 208 220 216 233 266 285 288 242 198 211 188 184 181 173 197 206 228 242 252 255 273 283 288 289 277 262 263 272 301 353 338 315 329 7 330 307 300 330 353 349 21 23 338 318 3 23 27 15 11 5 18 17 12 10 8 6 37 1 297 269 236 232 160 151 134 116 95 96 97 113 123 124 124
221 227 223 221 245 270 312 270 254 245 218 206 213 213 201 212 226 259 268 268 249 210 236 227 202 194 182 191 221 215 204 214 222 231 250 274 279 269 269 284 303 319 318 344 317 303 1 2 320 304 311 346 346 3 2 358 346 332 5 35 33 33 23 18 15 23 23 21 15 11 32 18 3 345 4 29 55 71 58 61 86 93 104 120 126 125 115
234 236 241 236 250 261 273 281 247 248 239 227 230 229 209 197 216 221 230 246 213 166 261 266 243 220 211 218 223 229 213 194 196 200 228 248 261 261 255 240 241 245 51 328 304 332 340 297 293 313 342 348 347 0 347 343 326 324 20 31 37 39 39 32 26 25 22 16 12 9 35 43 44 49 51 57 71 72 97 105 105 108 116 125 127 126 126
242 239 232 233 247 257 260 266 262 252 250 230 233 242 241 222 220 230 233 235 224 187 242 267 262 248 247 234 218 220 196 188 194 203 207 223 241 244 259 212 138 136 63 355 335 311 291 285 339 340 6 351 346 356 335 330 320 342 31 39 41 40 44 42 39 35 29 24 21 26 30 35 42 50 58 58 49 48 58 78 97 104 107 111 118 124 125
242 231 242 252 252 248 257 255 264 264 252 245 231 233 234 227 228 232 236 233 233 236 259 245 66 328 319 323 304 280 246 218 216 223 228 242 269 291 292 62 78 61 42 318 269 263 258 268 14 36 17 345 332 337 330 313 300 354 37 42 48 47 44 44 48 44 41 39 39 43 44 51 59 62 64 70 71 70 72 76 95 105 108 117 128 130 128
252 252 246 239 237 236 242 257 260 270 277 255 240 233 231 228 225 226 231 229 234 236 227 232 144 178 224 237 252 251 240 222 224 222 225 225 236 260 294 331 359 78 41 322 303 294 339 7 17 29 1 337 316 313 311 299 321 25 31 50 61 58 55 50 45 48 49 49 49 47 50 59 64 65 65 66 74 75 71 60 63 74 99 107 112 120 122
267 262 260 254 250 249 251 248 234 235 251 264 252 231 226 227 223 227 227 231 223 220 244 251 230 221 216 231 246 258 235 204 213 206 224 206 193 194 211 296 341 82 78 321 306 315 15 29 31 1 336 329 321 318 311 305 23 28 38 36 48 62 68 61 52 51 56 60 56 56 56 56 58 62 67 75 79 80 78 78 79 82 92 99 103 101 91
266 262 260 260 256 249 242 247 247 238 247 266 249 234 225 221 223 227 230 222 225 221 214 236 246 235 237 220 228 239 286 323 301 283 253 245 224 155 133 167 205 240 56 342 294 306 54 37 12 345 333 327 320 318 307 346 23 26 40 45 43 50 63 67 68 65 62 61 66 66 62 59 60 62 66 67 71 78 83 83 76 72 73 79 79 84 86
270 266 261 255 256 259 258 246 241 229 234 235 240 229 229 231 233 229 223 227 225 215 220 222 225 221 230 224 220 229 248 251 246 261 298 341 26 71 59 16 41 51 344 300 302 353 67 55 7 339 332 318 320 305 317 18 356 32 26 55 74 62 55 65 73 70 67 68 70 72 71 68 65 62 63 66 68 71 67 65 68 65 63 68 76 84 91
266 259 258 256 252 246 253 245 237 245 240 230 230 239 224 220 230 236 225 218 227 224 217 213 216 218 204 215 227 210 208 205 188 186 218 134 123 110 105 111 105 57 297 319 22 32 29 15 346 327 319 316 315 307 352 16 30 35 31 14 20 58 74 73 70 80 84 90 103 106 105 97 85 79 74 70 69 68 67 69 75 79 81 78 76 67 62
284 276 268 260 254 240 232 244 236 231 234 248 246 231 253 247 228 229 233 229 222 223 225 222 214 205 202 198 203 236 274 281 243 172 165 178 147 152 164 143 105 71 341 225 188 124 96 358 326 314 309 310 297 305 33 24 22 25 34 35 28 32 38 58 74 77 83 81 88 82 86 91 90 87 87 85 85 83 84 85 89 88 89 90 91 91 94
264 266 268 264 251 252 250 241 235 233 244 246 232 237 231 232 230 227 230 232 235 229 225 221 221 207 196 199 215 208 185 203 276 30 118 155 165 159 116 116 135 183 238 263 194 131 124 185 289 300 303 296 300 44 54 58 50 45 41 37 44 36 35 41 52 83 94 86 79 78 75 70 73 77 83 86 89 88 89 91 95 101 103 98 91 89 88
261 257 246 236 234 234 238 241 235 239 230 243 277 314 248 213 228 221 220 227 230 233 236 223 212 203 203 187 198 208 180 176 187 186 159 131 129 130 145 151 132 112 314 313 1 148 142 185 238 250 282 300 52 38 53 55 59 56 71 72 65 70 67 76 65 59 70 86 100 105 102 94 87 84 85 84 84 83 83 84 88 74 66 90 103 105 107
244 240 243 245 243 244 232 239 248 244 250 257 248 243 275 260 251 257 246 235 226 216 232 234 227 205 195 193 194 197 175 179 171 170 185 164 176 136 136 134 144 183 194 236 255 258 186 179 117 335 302 5 60 46 46 57 83 84 63 69 86 100 105 87 69 68 72 85 90 93 97 98 95 97 95 94 92 93 98 105 106 102 96 96 97 98 96
249 252 253 249 256 250 237 230 234 243 249 241 230 209 211 227 249 245 240 220 246 247 227 229 230 215 204 195 191 189 181 177 160 169 194 178 175 176 162 208 191 166 202 218 198 197 228 85 100 246 294 304 101 114 133 156 95 94 99 101 88 80 83 107 123 120 124 125 113 111 111 111 113 109 102 100 100 102 103 99 95 91 90 88 88 91 97